Regional Weather Roundup
Issued by NWS

Home | Current Version | Previous Version | Graphics & Text | Print | Product List | Glossary On
Versions: 1 2 3 4 5 6 7 8 9 10 11 12 13 14 15 16 17 18 19 20 21 22 23 24 25 26 27 28 29 30 31 32 33 34 35 36 37 38 39 40 41 42 43 44 45 46 47 48 49 50
000
ASUS43 KMKX 010011
RWRWI

WISCONSIN REGIONAL WEATHER ROUNDUP
NATIONAL WEATHER SERVICE MILWAUKEE/SULLIVAN WI
700 PM CDT TUE SEP 30 2014

NOTE: "FAIR" INDICATES FEW OR NO CLOUDS BELOW 12,000 FEET WITH NO
SIGNIFICANT WEATHER AND/OR OBSTRUCTIONS TO VISIBILITY.

WIZ001-002-006>008-014>016-023>028-010100-
NORTHWEST WISCONSIN

CITY           SKY/WX    TMP DP  RH WIND       PRES   REMARKS
SUPERIOR ARPT  CLOUDY    47  44  88 NE12G20   29.98F
6HR MIN TEMP:  47; 6HR MAX TEMP:  53;

ASHLAND        CLOUDY    47  43  86 NE8       30.01F
6HR MIN TEMP:  47; 6HR MAX TEMP:  53;

HAYWARD        MOCLDY    55  45  68 E5        29.96S
6HR MIN TEMP:  51; 6HR MAX TEMP:  62;

SIREN          MOCLDY    54  45  71 SE5       29.94F
6HR MIN TEMP:  50; 6HR MAX TEMP:  58;

CUMBERLAND     MOCLDY    50  43  76 SE5       29.95F
RICE LAKE      MOCLDY    52  44  74 SE6       29.98S
6HR MIN TEMP:  49; 6HR MAX TEMP:  57;

CHETEK         MOCLDY    52  45  76 SE7       29.96F
6HR MIN TEMP:  48; 6HR MAX TEMP:  57;

LADYSMITH      MOCLDY    53  45  73 S3        29.99S
6HR MIN TEMP:  53; 6HR MAX TEMP:  64;

EAU CLAIRE     MOCLDY    52  43  71 SE8       29.97S
6HR MIN TEMP:  50; 6HR MAX TEMP:  57;

MENOMONIE      MOCLDY    53  44  71 E7        29.96S
6HR MIN TEMP:  51; 6HR MAX TEMP:  56;

NEW RICHMOND   MOCLDY    52  43  70 SE6       29.94S
6HR MIN TEMP:  51; 6HR MAX TEMP:  56;

OSCEOLA        MOCLDY    53  45  74 SE7       29.95F
6HR MIN TEMP:  52; 6HR MAX TEMP:  57;

$$

WIZ003>005-009-010-017-018-010100-
NORTH CENTRAL WISCONSIN

CITY           SKY/WX    TMP DP  RH WIND       PRES   REMARKS
MANITOWISH WTR CLEAR     46  44  94 CALM      30.00S
6HR MIN TEMP:  45; 6HR MAX TEMP:  55;

ARBOR VITAE    CLEAR     52  45  77 CALM      30.00S
6HR MIN TEMP:  47; 6HR MAX TEMP:  57;

WOODRUFF       CLEAR     52  45  77 CALM      30.00S
6HR MIN TEMP:  47; 6HR MAX TEMP:  57;

RHINELANDER    CLEAR     50  42  74 SE5       30.01S
6HR MIN TEMP:  47; 6HR MAX TEMP:  57;

EAGLE RIVER    CLEAR     50  42  72 CALM      30.01S
6HR MIN TEMP:  48; 6HR MAX TEMP:  57;

LAND O LAKES   CLEAR     47  44  91 E3        30.01F
6HR MIN TEMP:  46; 6HR MAX TEMP:  57;

PHILLIPS       MOCLDY    51  43  73 E3        29.98S
6HR MIN TEMP:  51; 6HR MAX TEMP:  60;

TOMAHAWK       PTCLDY    49  42  77 CALM      30.01S
6HR MIN TEMP:  49; 6HR MAX TEMP:  58;

MEDFORD        MOCLDY    48  42  80 SE3       30.00S
6HR MIN TEMP:  48; 6HR MAX TEMP:  57;

MERRILL        PTCLDY    50  44  80 CALM      30.01S
6HR MIN TEMP:  50; 6HR MAX TEMP:  58;

$$

WIZ029-030-035-036-043>047-010100-
CENTRAL WISCONSIN

CITY           SKY/WX    TMP DP  RH WIND       PRES   REMARKS
WAUSAU         MOCLDY    48  42  80 SE9       30.01S
6HR MIN TEMP:  48; 6HR MAX TEMP:  55;

MOSINEE        CLEAR     46  43  87 SE6       30.03S
MARSHFIELD     MOCLDY    48  42  80 SE8       30.01R
6HR MIN TEMP:  48; 6HR MAX TEMP:  55;

STEVENS POINT  CLOUDY    45  40  84 E8        30.03F
6HR MIN TEMP:  45; 6HR MAX TEMP:  52;

WAUPACA        CLOUDY    49  44  81 E6        30.05S
6HR MIN TEMP:  49; 6HR MAX TEMP:  52;

WAUTOMA        NOT AVBL
WISC RAPIDS    CLOUDY    49  42  77 SE7       30.04R
6HR MIN TEMP:  49; 6HR MAX TEMP:  55;

CAMP DOUGLAS   CLOUDY    47  46  97 E13       30.02S
6HR MIN TEMP:  47; 6HR MAX TEMP:  50;

$$

WIZ011>013-019>022-031-037>040-048>050-010100-
NORTHEAST WISCONSIN

CITY           SKY/WX    TMP DP  RH WIND       PRES   REMARKS
ANTIGO         PTCLDY    45  42  90 SE6       30.03R
6HR MIN TEMP:  45; 6HR MAX TEMP:  54;

SHAWANO        CLOUDY    49  43  80 E7        30.05F
6HR MIN TEMP:  48; 6HR MAX TEMP:  51;

OCONTO         CLOUDY    49  45  87 CALM      30.06S
6HR MIN TEMP:  47; 6HR MAX TEMP:  51;

STURGEON BAY   NOT AVBL
GREEN BAY      CLOUDY    49  44  83 E7        30.06S
6HR MIN TEMP:  48; 6HR MAX TEMP:  50;

MANITOWOC      NOT AVBL
APPLETON       CLOUDY    46  43  87 VRB6      30.05S
CLINTONVILLE   CLOUDY    46  41  81 SE5       30.05S
OSHKOSH        CLOUDY    49  44  83 E6        30.04S
6HR MIN TEMP:  48; 6HR MAX TEMP:  50;

$$

WIZ032>034-041-042-053>061-010100-
SOUTHWEST WISCONSIN

CITY           SKY/WX    TMP DP  RH WIND       PRES   REMARKS
LA CROSSE      MOCLDY    53  44  71 SE7       29.98S
6HR MIN TEMP:  52; 6HR MAX TEMP:  58;

SPARTA         CLOUDY    47  41  80 E6        30.01F
6HR MIN TEMP:  47; 6HR MAX TEMP:  53;

VIROQUA        MOCLDY    47  43  87 E6        29.98S
6HR MIN TEMP:  47; 6HR MAX TEMP:  54;

BOSCOBEL       PTCLDY    50  43  77 NE6       30.01S
6HR MIN TEMP:  50; 6HR MAX TEMP:  56;

PRAIRIE DU CHI PTCLDY    54  43  67 E7        29.98R
6HR MIN TEMP:  53; 6HR MAX TEMP:  58;

PLATTEVILLE    CLEAR     49  44  81 E8        30.00S
6HR MIN TEMP:  49; 6HR MAX TEMP:  56;

$$

WIZ056-057-062-063-064-067-068-010100-
SOUTH CENTRAL WISCONSIN

CITY           SKY/WX    TMP DP  RH WIND       PRES   REMARKS
REEDSBURG      CLOUDY    47  42  84 E5        30.02F
6HR MIN TEMP:  46; 6HR MAX TEMP:  48;

BARABOO/DELLS  CLOUDY    46  41  80 E8        30.02F
6HR MIN TEMP:  46; 6HR MAX TEMP:  48;

LONE ROCK      CLOUDY    53  42  66 SE12      30.01F
6HR MIN TEMP:  53; 6HR MAX TEMP:  56;

MINERAL POINT  PTCLDY    46  43  87 E3        30.00F
MADISON        MOCLDY    48  41  76 E3        30.03S
6HR MIN TEMP:  48; 6HR MAX TEMP:  50;

MIDDLETON      MOCLDY    48  42  80 E5        30.02F
6HR MIN TEMP:  48; 6HR MAX TEMP:  51;

WATERTOWN      CLOUDY    52  44  76 E6        30.02S
6HR MIN TEMP:  47; 6HR MAX TEMP:  53;

MONROE         MOCLDY    45  43  93 NE6       30.00S
JANESVILLE     CLEAR     54  43  66 E7        30.01S
$$

WIZ051-052-058>065-066-070>072-010100-
SOUTHEAST WISCONSIN

CITY           SKY/WX    TMP DP  RH WIND       PRES   REMARKS
MILWAUKEE      DRIZZLE   50  47  89 N10       30.03F FOG
6HR MIN TEMP:  50; 6HR MAX TEMP:  54; 6HR PCP: TRACE;

WAUKESHA       CLOUDY    48  43  81 E8        30.04S
MILWAUKEE/TIMM CLOUDY    48  45  87 NE6       30.05R
RACINE         CLOUDY    52  48  86 NE9       30.04S
6HR MIN TEMP:  51; 6HR MAX TEMP:  54; 6HR PCP: TRACE;

BURLINGTON     CLOUDY    49  44  80 NE3       30.02S
6HR MIN TEMP:  49; 6HR MAX TEMP:  54;

KENOSHA        CLOUDY    52  49  89 NE6       30.02F
6HR MIN TEMP:  52; 6HR MAX TEMP:  56;

FOND DU LAC    CLOUDY    49  42  77 E7        30.04F
6HR MIN TEMP:  48; 6HR MAX TEMP:  50;

SHEBOYGAN      CLOUDY    48  45  89 N7        30.04F
6HR MIN TEMP:  48; 6HR MAX TEMP:  51;

WEST BEND      CLOUDY    46  41  81 NE7       30.04S
JUNEAU         CLOUDY    50  43  79 E10       30.04S
6HR MIN TEMP:  47; 6HR MAX TEMP:  51;

$$

LSZ147-162-010100-
LAKE SUPERIOR

STATION/POSITION TIME  TEMP    WIND        PRES    WAVE
                       AIR SEA DIR/SP/G            HT/PER
                 (UTC) (F)     (DEG/KT/KT) (MB)    (FT/S)
W MID LAKE BUOY  2350   46 50   70/ 14/ 16 1017.2F   3/ 4
DEVILS ISLAND    0000   48      70/ 17/ 18 1016.7F
SAXON HARBOR     2300   48      50/ 11/ 14 1015.9
$$

LMZ867-665-643>646-010100-
LAKE MICHIGAN

STATION/POSITION TIME  TEMP    WIND        PRES    WAVE
                       AIR SEA DIR/SP/G            HT/PER
                 (UTC) (F)     (DEG/KT/KT) (MB)    (FT/S)
CHAMBERS ISLAND  2300   51      50/  6/  8 1017.9S
S GREEN BAY BUOY 0000   51                 1018.6S


USA.gov is the U.S. government's official web portal to all federal, state and local government web resources and services.